USA 81

导读

USA 81是美国于1992年4月25日北京时间8时发射的军用侦察卫星,目前运行在近地点约783千米、远地点约785千米,倾角约85.0°的近地轨道上。作为美国军事卫星体系中的一员,承担空间侦察监视任务,其具体载荷细节与任务参数仍保持保密状态,长期稳定在轨运行,为美国战略情报收集提供空间观测支持。

Basic Information
目录编号:
21949
目录名称:
USA 81
国际标识:
1992-023A
轨道中心:
EARTH
卫星名称:
USA 81
卫星全名:
--
卫星状态:
在轨 (已飞行12471 天)
发射日期:
1992-04-25 UTC
国别 :
美国 (US)
星等 :
--
Orbit Information
数据来源 国际轨道数据 AOE轨道数据
星历时间 2026-06-17T07:53:25+0800
13小时前
查看轨道信息
2026-06-17T02:00:00+0800
18小时前
查看轨道信息
半长轴 7161.864km 7161.861km
偏心率 0.0002756 0.0002508
轨道倾角 85.007° 85.007°
近地点辐角 84.662° 88.285°
升交点赤经 74.118° 74.259°
平近点角 275.489° 87.086°
近地点 781.753km 781.927km
远地点 785.701km 785.521km
周期 100.531分钟 100.531分钟
每日圈数 14.323981 14.323988
Detailed Information
使用方式:
暂无
2D Orbit Map
3D Orbit Map
Orbit Altitude Analysis Chart
Orbit Inclination Analysis Chart
Orbit Comprehensive Analysis Chart
View Comprehensive Chart